Starlink 32267

operational
NORAD ID: 60363 Int'l Des: 2024-138 Owner: SPXS Country: US Constellation: starlink
LEOCIRCULAR

Starlink 32267について

説明を読み込み中...

リアルタイム位置

3D地球を読み込み中...

次回通過

高度履歴

Altitude vs Time

uPlot chart will show altitude changes over time

軌道要素

1 60363U 24138J 25353.21473505 .00000549 00000-0 30664-4 0 9992
2 60363 53.1629 323.6072 0001292 87.1583 272.9566 15.30196115 78302
Epoch: Dec 19, 2025 • Age: 29 hours

現在のステータス

高度 475.4 km
速度 7.63 km/s
衛星直下点 21.54°N, 118.84°W
打ち上げ日 Aug 4, 2024
運用期間 1.3 years
タイプ internet

技術仕様

分類 Payload
質量 730.00 kg
乾燥質量 700.00 kg
総質量 730.00 kg
長さ 0.30 m
直径 4.10 m
スパン 29.00 m
形状 Box + pan
製造者 SPXS
バスタイプ Starlink V2M
フェーズステータス In Orbit
所有者/国 SPXS/US

大規模コンステレーション

Loading constellations...